| time (UTC) | temp F | wind direction | speed MPH | gust MPH | rain 1hr in | rain 24hr in | rain mn in | humidity % | barometer mb |
| 20260510092422 | 53 | 280 | 4.0 | 14.0 | 0.00 | 0.00 | 0.00 | 89 | 1014.4 |
| 20260510091928 | 53 | 308 | 6.0 | 15.0 | 0.00 | 0.00 | 0.00 | 89 | 1014.4 |
| 20260510091435 | 53 | 251 | 5.0 | 17.0 | 0.00 | 0.00 | 0.00 | 89 | 1014.4 |
| 20260510090921 | 53 | 333 | 8.0 | 17.0 | 0.00 | 0.00 | 0.00 | 89 | 1014.5 |
| 20260510090441 | 53 | 22 | 5.0 | 13.0 | 0.00 | 0.00 | 0.00 | 89 | 1014.4 |
| 20260510085946 | 53 | 249 | 4.0 | 17.0 | 0.00 | 0.00 | 0.00 | 89 | 1014.5 |
| 20260510085431 | 53 | 221 | 7.0 | 17.0 | 0.00 | 0.00 | 0.00 | 89 | 1014.5 |
| 20260510084940 | 53 | 254 | 6.0 | 16.0 | 0.00 | 0.00 | 0.00 | 89 | 1014.4 |
| 20260510084446 | 53 | 244 | 7.0 | 21.0 | 0.00 | 0.00 | 0.00 | 89 | 1014.5 |
| 20260510083931 | 53 | 291 | 11.0 | 21.0 | 0.00 | 0.00 | 0.00 | 89 | 1014.5 |
| 20260510083434 | 53 | 247 | 9.0 | 23.0 | 0.00 | 0.00 | 0.00 | 89 | 1014.5 |
| 20260510082939 | 53 | 191 | 12.0 | 23.0 | 0.00 | 0.00 | 0.00 | 89 | 1014.5 |
| 20260510082424 | 53 | 285 | 11.0 | 19.0 | 0.00 | 0.00 | 0.00 | 89 | 1014.5 |
| 20260510081931 | 53 | 258 | 11.0 | 21.0 | 0.00 | 0.00 | 0.00 | 89 | 1014.5 |
| 20260510081440 | 53 | 233 | 11.0 | 23.0 | 0.00 | 0.00 | 0.00 | 89 | 1014.6 |
| 20260510080925 | 53 | 320 | 11.0 | 23.0 | 0.00 | 0.00 | 0.00 | 89 | 1014.5 |
| 20260510080427 | 53 | 242 | 7.0 | 14.0 | 0.00 | 0.00 | 0.00 | 89 | 1014.5 |
| 20260510075943 | 53 | 197 | 7.0 | 17.0 | 0.00 | 0.00 | 0.00 | 89 | 1014.7 |
| 20260510075429 | 53 | 263 | 8.0 | 20.0 | 0.00 | 0.00 | 0.00 | 89 | 1014.7 |
| 20260510074933 | 53 | 256 | 11.0 | 26.0 | 0.00 | 0.00 | 0.00 | 89 | 1014.6 |
| 20260510074421 | 53 | 251 | 14.0 | 26.0 | 0.00 | 0.00 | 0.00 | 89 | 1014.6 |
| 20260510073926 | 53 | 228 | 11.0 | 23.0 | 0.00 | 0.00 | 0.00 | 89 | 1014.7 |
| 20260510073431 | 53 | 244 | 11.0 | 20.0 | 0.00 | 0.00 | 0.00 | 89 | 1014.7 |
| 20260510072937 | 53 | 348 | 9.0 | 24.0 | 0.00 | 0.00 | 0.00 | 88 | 1014.8 |
| 20260510072421 | 53 | 278 | 11.0 | 24.0 | 0.00 | 0.00 | 0.00 | 88 | 1014.9 |
| 20260510071949 | 53 | 177 | 9.0 | 18.0 | 0.00 | 0.00 | 0.00 | 88 | 1014.8 |
| 20260510071434 | 53 | 282 | 11.0 | 19.0 | 0.00 | 0.00 | 0.00 | 88 | 1014.9 |
| 20260510070922 | 53 | 264 | 8.0 | 19.0 | 0.00 | 0.00 | 0.00 | 88 | 1014.9 |
| 20260510070516 | 53 | 290 | 11.0 | 20.0 | 0.00 | 0.00 | 0.00 | 88 | 1014.8 |
| 20260510065953 | 53 | 251 | 7.0 | 23.0 | 0.00 | 0.00 | 0.00 | 88 | 1014.8 |
| 20260510065436 | 53 | 290 | 14.0 | 23.0 | 0.00 | 0.00 | 0.00 | 88 | 1014.7 |
| 20260510064940 | 53 | 269 | 10.0 | 22.0 | 0.00 | 0.00 | 0.00 | 88 | 1014.7 |
| 20260510064427 | 53 | 273 | 9.0 | 19.0 | 0.00 | 0.00 | 0.00 | 88 | 1014.7 |
| 20260510063933 | 53 | 236 | 6.0 | 18.0 | 0.00 | 0.00 | 0.00 | 88 | 1014.8 |
| 20260510063421 | 53 | 258 | 8.0 | 18.0 | 0.00 | 0.00 | 0.00 | 88 | 1014.8 |
| 20260510062927 | 53 | 286 | 7.0 | 16.0 | 0.00 | 0.00 | 0.00 | 88 | 1014.8 |
| 20260510062434 | 53 | 222 | 4.0 | 16.0 | 0.00 | 0.00 | 0.00 | 88 | 1014.8 |
| 20260510061922 | 53 | 270 | 8.0 | 18.0 | 0.00 | 0.00 | 0.00 | 88 | 1014.7 |
| 20260510061425 | 53 | 219 | 5.0 | 21.0 | 0.00 | 0.00 | 0.00 | 88 | 1014.8 |
| 20260510060930 | 53 | 270 | 10.0 | 21.0 | 0.00 | 0.00 | 0.00 | 88 | 1014.8 |
| 20260510060438 | 53 | 206 | 8.0 | 21.0 | 0.00 | 0.00 | 0.00 | 87 | 1014.7 |
| 20260510055927 | 53 | 273 | 10.0 | 21.0 | 0.00 | 0.00 | 0.00 | 87 | 1014.7 |
| 20260510055433 | 53 | 261 | 10.0 | 19.0 | 0.00 | 0.00 | 0.00 | 87 | 1014.7 |
| 20260510054922 | 53 | 219 | 10.0 | 19.0 | 0.00 | 0.00 | 0.00 | 87 | 1014.6 |
| 20260510054431 | 53 | 229 | 8.0 | 19.0 | 0.00 | 0.00 | 0.00 | 87 | 1014.7 |
| 20260510053932 | 53 | 257 | 7.0 | 20.0 | 0.00 | 0.00 | 0.00 | 87 | 1014.7 |
| 20260510053438 | 54 | 359 | 11.0 | 22.0 | 0.00 | 0.00 | 0.00 | 87 | 1014.7 |
| 20260510052924 | 54 | 256 | 11.0 | 22.0 | 0.00 | 0.00 | 0.00 | 87 | 1014.7 |
| 20260510052433 | 54 | 225 | 10.0 | 19.0 | 0.00 | 0.00 | 0.00 | 87 | 1014.7 |
| 20260510051922 | 54 | 205 | 7.0 | 19.0 | 0.00 | 0.00 | 0.00 | 87 | 1014.7 |
| 20260510051429 | 54 | 249 | 8.0 | 18.0 | 0.00 | 0.00 | 0.00 | 86 | 1014.7 |
| 20260510050935 | 54 | 271 | 10.0 | 21.0 | 0.00 | 0.00 | 0.00 | 87 | 1014.7 |
| 20260510050423 | 54 | 287 | 12.0 | 21.0 | 0.00 | 0.00 | 0.00 | 86 | 1014.7 |
| 20260510045922 | 54 | 256 | 11.0 | 21.0 | 0.00 | 0.00 | 0.00 | 86 | 1014.6 |
| 20260510045431 | 54 | 251 | 11.0 | 28.0 | 0.00 | 0.00 | 0.00 | 86 | 1014.6 |
| 20260510044938 | 54 | 271 | 12.0 | 28.0 | 0.00 | 0.00 | 0.00 | 86 | 1014.6 |
| 20260510044427 | 54 | 232 | 8.0 | 25.0 | 0.00 | 0.00 | 0.00 | 86 | 1014.5 |
| 20260510043933 | 54 | 280 | 11.0 | 25.0 | 0.00 | 0.00 | 0.00 | 86 | 1014.4 |
| 20260510043439 | 54 | 234 | 12.0 | 22.0 | 0.00 | 0.00 | 0.00 | 86 | 1014.4 |
| 20260510042925 | 54 | 258 | 11.0 | 20.0 | 0.00 | 0.00 | 0.00 | 86 | 1014.4 |
| 20260510042430 | 54 | 244 | 11.0 | 20.0 | 0.00 | 0.00 | 0.00 | 86 | 1014.3 |
| 20260510041934 | 54 | 244 | 9.0 | 22.0 | 0.00 | 0.00 | 0.00 | 86 | 1014.2 |
| 20260510041421 | 54 | 230 | 12.0 | 22.0 | 0.00 | 0.00 | 0.00 | 86 | 1014.0 |
| 20260510040929 | 54 | 242 | 10.0 | 24.0 | 0.00 | 0.00 | 0.00 | 86 | 1013.9 |
| 20260510040433 | 54 | 275 | 13.0 | 24.0 | 0.00 | 0.00 | 0.00 | 86 | 1013.8 |
| 20260510035940 | 54 | 256 | 12.0 | 21.0 | 0.00 | 0.00 | 0.00 | 86 | 1013.8 |
| 20260510035423 | 54 | 266 | 11.0 | 22.0 | 0.00 | 0.00 | 0.00 | 86 | 1013.9 |
| 20260510034950 | 54 | 290 | 12.0 | 22.0 | 0.00 | 0.00 | 0.00 | 86 | 1013.8 |
| 20260510034431 | 54 | 275 | 14.0 | 29.0 | 0.00 | 0.00 | 0.00 | 86 | 1013.8 |
| 20260510033939 | 55 | 282 | 12.0 | 29.0 | 0.00 | 0.00 | 0.00 | 86 | 1013.8 |
| 20260510033426 | 55 | 253 | 16.0 | 25.0 | 0.00 | 0.00 | 0.00 | 85 | 1013.6 |
| 20260510032931 | 55 | 268 | 13.0 | 25.0 | 0.00 | 0.00 | 0.00 | 85 | 1013.7 |
| 20260510032439 | 55 | 222 | 13.0 | 24.0 | 0.00 | 0.00 | 0.00 | 85 | 1013.8 |
| 20260510031927 | 55 | 289 | 16.0 | 29.0 | 0.00 | 0.00 | 0.00 | 85 | 1013.7 |
| 20260510031433 | 55 | 247 | 14.0 | 23.0 | 0.00 | 0.00 | 0.00 | 85 | 1013.6 |
| 20260510030920 | 55 | 283 | 11.0 | 26.0 | 0.00 | 0.00 | 0.00 | 85 | 1013.7 |
| 20260510030421 | 55 | 282 | 12.0 | 29.0 | 0.00 | 0.00 | 0.00 | 85 | 1013.5 |
| 20260510025928 | 55 | 263 | 13.0 | 28.0 | 0.00 | 0.00 | 0.00 | 85 | 1013.4 |
| 20260510025434 | 55 | 280 | 12.0 | 25.0 | 0.00 | 0.00 | 0.00 | 85 | 1013.5 |
| 20260510024940 | 55 | 280 | 15.0 | 29.0 | 0.00 | 0.00 | 0.00 | 85 | 1013.5 |
| 20260510024426 | 55 | 278 | 13.0 | 24.0 | 0.00 | 0.00 | 0.00 | 85 | 1013.4 |
| 20260510023933 | 55 | 276 | 13.0 | 27.0 | 0.00 | 0.00 | 0.00 | 85 | 1013.4 |
| 20260510023439 | 55 | 242 | 12.0 | 27.0 | 0.00 | 0.00 | 0.00 | 84 | 1013.3 |
| 20260510022941 | 55 | 254 | 10.0 | 29.0 | 0.00 | 0.00 | 0.00 | 84 | 1013.3 |
| 20260510022427 | 55 | 294 | 15.0 | 32.0 | 0.00 | 0.00 | 0.00 | 84 | 1013.4 |
| 20260510021933 | 55 | 275 | 15.0 | 32.0 | 0.00 | 0.00 | 0.00 | 84 | 1013.4 |
| 20260510021438 | 55 | 270 | 15.0 | 27.0 | 0.00 | 0.00 | 0.00 | 84 | 1013.4 |
| 20260510020925 | 55 | 275 | 15.0 | 32.0 | 0.00 | 0.00 | 0.00 | 84 | 1013.4 |
| 20260510020434 | 55 | 259 | 18.0 | 32.0 | 0.00 | 0.00 | 0.00 | 84 | 1013.4 |
| 20260510015922 | 56 | 224 | 16.0 | 27.0 | 0.00 | 0.00 | 0.00 | 83 | 1013.3 |
| 20260510015429 | 56 | 259 | 16.0 | 32.0 | 0.00 | 0.00 | 0.00 | 83 | 1013.2 |
| 20260510014932 | 56 | 266 | 16.0 | 33.0 | 0.00 | 0.00 | 0.00 | 83 | 1013.3 |
| 20260510014438 | 56 | 252 | 18.0 | 33.0 | 0.00 | 0.00 | 0.00 | 82 | 1013.2 |
| 20260510013925 | 56 | 268 | 16.0 | 31.0 | 0.00 | 0.00 | 0.00 | 82 | 1013.5 |
| 20260510013433 | 57 | 246 | 16.0 | 31.0 | 0.00 | 0.00 | 0.00 | 82 | 1013.3 |
| 20260510012939 | 57 | 262 | 19.0 | 31.0 | 0.00 | 0.00 | 0.00 | 81 | 1013.3 |
| 20260510012427 | 57 | 212 | 17.0 | 29.0 | 0.00 | 0.00 | 0.00 | 81 | 1013.4 |
| 20260510012001 | 58 | 239 | 12.0 | 27.0 | 0.00 | 0.00 | 0.00 | 81 | 1013.5 |
| 20260510011452 | 58 | 270 | 13.0 | 27.0 | 0.00 | 0.00 | 0.00 | 81 | 1013.5 |
| 20260510010940 | 58 | 285 | 17.0 | 30.0 | 0.00 | 0.00 | 0.00 | 81 | 1013.5 |
| 20260510010447 | 58 | 259 | 11.0 | 27.0 | 0.00 | 0.00 | 0.00 | 80 | 1013.5 |
| 20260510005931 | 58 | 251 | 16.0 | 27.0 | 0.00 | 0.00 | 0.00 | 80 | 1013.5 |
| 20260510005439 | 58 | 242 | 11.0 | 28.0 | 0.00 | 0.00 | 0.00 | 80 | 1013.6 |
| 20260510004945 | 58 | 274 | 12.0 | 28.0 | 0.00 | 0.00 | 0.00 | 79 | 1013.6 |
| 20260510004426 | 59 | 186 | 9.0 | 26.0 | 0.00 | 0.00 | 0.00 | 79 | 1013.7 |
| 20260510004001 | 59 | 227 | 12.0 | 26.0 | 0.00 | 0.00 | 0.00 | 79 | 1013.6 |
| 20260510003426 | 59 | 241 | 11.0 | 24.0 | 0.00 | 0.00 | 0.00 | 79 | 1013.7 |
| 20260510002934 | 59 | 271 | 11.0 | 24.0 | 0.00 | 0.00 | 0.00 | 79 | 1013.6 |
| 20260510002421 | 59 | 256 | 12.0 | 24.0 | 0.00 | 0.00 | 0.00 | 79 | 1013.8 |
| 20260510001929 | 59 | 238 | 13.0 | 25.0 | 0.00 | 0.00 | 0.00 | 79 | 1013.6 |
| 20260510001436 | 59 | 282 | 11.0 | 25.0 | 0.00 | 0.00 | 0.00 | 79 | 1013.7 |
| 20260510000923 | 59 | 189 | 12.0 | 26.0 | 0.00 | 0.00 | 0.00 | 79 | 1013.5 |
| 20260510000449 | 59 | 275 | 15.0 | 31.0 | 0.00 | 0.00 | 0.00 | 79 | 1013.5 |
| 20260509235935 | 59 | 247 | 13.0 | 31.0 | 0.00 | 0.00 | 0.00 | 79 | 1013.5 |
| 20260509235442 | 59 | 263 | 18.0 | 32.0 | 0.00 | 0.00 | 0.00 | 79 | 1013.5 |
| 20260509234926 | 59 | 263 | 15.0 | 32.0 | 0.00 | 0.00 | 0.00 | 79 | 1013.5 |
| 20260509234430 | 59 | 249 | 14.0 | 32.0 | 0.00 | 0.00 | 0.00 | 79 | 1013.7 |
| 20260509233939 | 59 | 256 | 16.0 | 31.0 | 0.00 | 0.00 | 0.00 | 79 | 1013.6 |
| 20260509233421 | 60 | 283 | 13.0 | 26.0 | 0.00 | 0.00 | 0.00 | 78 | 1013.7 |
| 20260509232928 | 59 | 177 | 14.0 | 30.0 | 0.00 | 0.00 | 0.00 | 79 | 1013.7 |
| 20260509232436 | 59 | 272 | 16.0 | 31.0 | 0.00 | 0.00 | 0.00 | 79 | 1013.7 |
| 20260509231922 | 59 | 258 | 16.0 | 30.0 | 0.00 | 0.00 | 0.00 | 78 | 1013.7 |
| 20260509231428 | 60 | 270 | 16.0 | 30.0 | 0.00 | 0.00 | 0.00 | 78 | 1013.8 |
| 20260509230954 | 60 | 264 | 16.0 | 27.0 | 0.00 | 0.00 | 0.00 | 78 | 1013.7 |
| 20260509230438 | 60 | 273 | 14.0 | 30.0 | 0.00 | 0.00 | 0.00 | 78 | 1013.9 |
| 20260509225921 | 60 | 294 | 18.0 | 30.0 | 0.00 | 0.00 | 0.00 | 78 | 1013.8 |
| 20260509225426 | 60 | 234 | 15.0 | 30.0 | 0.00 | 0.00 | 0.00 | 78 | 1013.9 |
| 20260509224932 | 60 | 268 | 16.0 | 30.0 | 0.00 | 0.00 | 0.00 | 78 | 1014.0 |
| 20260509224438 | 60 | 282 | 16.0 | 32.0 | 0.00 | 0.00 | 0.00 | 78 | 1014.0 |
| 20260509223923 | 60 | 302 | 14.0 | 32.0 | 0.00 | 0.00 | 0.00 | 78 | 1014.1 |
| 20260509223430 | 60 | 275 | 19.0 | 29.0 | 0.00 | 0.00 | 0.00 | 78 | 1014.2 |
| 20260509222937 | 61 | 214 | 14.0 | 27.0 | 0.00 | 0.00 | 0.00 | 77 | 1014.1 |
| 20260509222425 | 61 | 243 | 13.0 | 27.0 | 0.00 | 0.00 | 0.00 | 77 | 1014.2 |
| 20260509221929 | 60 | 280 | 16.0 | 33.0 | 0.00 | 0.00 | 0.00 | 78 | 1014.2 |
| 20260509221434 | 60 | 280 | 18.0 | 33.0 | 0.00 | 0.00 | 0.00 | 77 | 1014.2 |
| 20260509220921 | 61 | 273 | 13.0 | 34.0 | 0.00 | 0.00 | 0.00 | 78 | 1014.3 |
| 20260509220430 | 61 | 271 | 16.0 | 32.0 | 0.00 | 0.00 | 0.00 | 77 | 1014.2 |
| 20260509215937 | 60 | 299 | 16.0 | 32.0 | 0.00 | 0.00 | 0.00 | 77 | 1014.2 |
| 20260509215443 | 61 | 275 | 16.0 | 32.0 | 0.00 | 0.00 | 0.00 | 76 | 1014.3 |
| 20260509215000 | 61 | 280 | 17.0 | 32.0 | 0.00 | 0.00 | 0.00 | 77 | 1014.3 |
| 20260509214421 | 61 | 256 | 13.0 | 26.0 | 0.00 | 0.00 | 0.00 | 76 | 1014.4 |
| 20260509213930 | 61 | 266 | 12.0 | 26.0 | 0.00 | 0.00 | 0.00 | 77 | 1014.7 |
| 20260509213434 | 61 | 214 | 11.0 | 26.0 | 0.00 | 0.00 | 0.00 | 77 | 1014.7 |
| 20260509212937 | 61 | 314 | 11.0 | 27.0 | 0.00 | 0.00 | 0.00 | 78 | 1014.9 |
| 20260509212423 | 60 | 263 | 15.0 | 30.0 | 0.00 | 0.00 | 0.00 | 77 | 1014.8 |
| 20260509211928 | 60 | 259 | 14.0 | 30.0 | 0.00 | 0.00 | 0.00 | 77 | 1014.9 |
| 20260509211436 | 60 | 259 | 13.0 | 27.0 | 0.00 | 0.00 | 0.00 | 77 | 1015.0 |
| 20260509210925 | 60 | 270 | 15.0 | 26.0 | 0.00 | 0.00 | 0.00 | 77 | 1014.9 |
| 20260509210428 | 60 | 302 | 17.0 | 29.0 | 0.00 | 0.00 | 0.00 | 77 | 1015.0 |
| 20260509205935 | 60 | 244 | 17.0 | 29.0 | 0.00 | 0.00 | 0.00 | 78 | 1015.0 |
| 20260509205423 | 60 | 261 | 15.0 | 28.0 | 0.00 | 0.00 | 0.00 | 77 | 1015.1 |
| 20260509204933 | 60 | 300 | 13.0 | 26.0 | 0.00 | 0.00 | 0.00 | 77 | 1015.1 |
| 20260509204440 | 60 | 261 | 15.0 | 31.0 | 0.00 | 0.00 | 0.00 | 78 | 1015.3 |
| 20260509203928 | 60 | 237 | 17.0 | 31.0 | 0.00 | 0.00 | 0.00 | 78 | 1015.2 |
| 20260509203437 | 60 | 299 | 15.0 | 30.0 | 0.00 | 0.00 | 0.00 | 77 | 1015.3 |
| 20260509202924 | 60 | 283 | 15.0 | 30.0 | 0.00 | 0.00 | 0.00 | 77 | 1015.3 |
| 20260509202425 | 60 | 245 | 16.0 | 28.0 | 0.00 | 0.00 | 0.00 | 77 | 1015.4 |
| 20260509201931 | 60 | 257 | 18.0 | 28.0 | 0.00 | 0.00 | 0.00 | 77 | 1015.3 |
| 20260509201439 | 60 | 292 | 16.0 | 28.0 | 0.00 | 0.00 | 0.00 | 76 | 1015.4 |
| 20260509200925 | 61 | 320 | 12.0 | 21.0 | 0.00 | 0.00 | 0.00 | 76 | 1015.5 |
| 20260509200431 | 61 | 268 | 11.0 | 24.0 | 0.00 | 0.00 | 0.00 | 75 | 1015.5 |
| 20260509195939 | 61 | 303 | 11.0 | 24.0 | 0.00 | 0.00 | 0.00 | 75 | 1015.6 |
| 20260509195455 | 62 | 282 | 7.0 | 20.0 | 0.00 | 0.00 | 0.00 | 75 | 1015.6 |
| 20260509194936 | 62 | 243 | 11.0 | 19.0 | 0.00 | 0.00 | 0.00 | 74 | 1015.6 |
| 20260509194421 | 62 | 280 | 9.0 | 14.0 | 0.00 | 0.00 | 0.00 | 74 | 1015.7 |
| 20260509193947 | 62 | 328 | 6.0 | 15.0 | 0.00 | 0.00 | 0.00 | 74 | 1015.7 |
| 20260509193435 | 62 | 333 | 9.0 | 15.0 | 0.00 | 0.00 | 0.00 | 73 | 1015.7 |
| 20260509192920 | 62 | 313 | 4.0 | 10.0 | 0.00 | 0.00 | 0.00 | 73 | 1015.8 |
| 20260509192446 | 62 | 308 | 4.0 | 11.0 | 0.00 | 0.00 | 0.00 | 73 | 1015.9 |
| 20260509191927 | 62 | 336 | 6.0 | 11.0 | 0.00 | 0.00 | 0.00 | 73 | 1015.8 |
| 20260509191433 | 62 | 78 | 4.0 | 7.0 | 0.00 | 0.00 | 0.00 | 75 | 1015.8 |
| 20260509190938 | 61 | 268 | 5.0 | 13.0 | 0.00 | 0.00 | 0.00 | 75 | 1015.8 |
| 20260509190455 | 61 | 254 | 7.0 | 14.0 | 0.00 | 0.00 | 0.00 | 75 | 1015.8 |
| 20260509185931 | 61 | 280 | 8.0 | 13.0 | 0.00 | 0.00 | 0.00 | 75 | 1015.9 |
| 20260509185435 | 61 | 299 | 6.0 | 13.0 | 0.00 | 0.00 | 0.00 | 76 | 1015.9 |
| 20260509184942 | 60 | 88 | 7.0 | 13.0 | 0.00 | 0.00 | 0.00 | 76 | 1016.0 |
| 20260509184444 | 60 | 202 | 5.0 | 15.0 | 0.00 | 0.00 | 0.00 | 76 | 1016.1 |
| 20260509183928 | 60 | 305 | 7.0 | 15.0 | 0.00 | 0.00 | 0.00 | 76 | 1016.0 |
| 20260509183502 | 60 | 294 | 7.0 | 13.0 | 0.00 | 0.00 | 0.00 | 76 | 1016.1 |
| 20260509182958 | 61 | 268 | 4.0 | 11.0 | 0.00 | 0.00 | 0.00 | 76 | 1016.0 |
| 20260509182422 | 60 | 297 | 5.0 | 11.0 | 0.00 | 0.00 | 0.00 | 76 | 1016.0 |
| 20260509181929 | 60 | 313 | 7.0 | 13.0 | 0.00 | 0.00 | 0.00 | 76 | 1016.0 |
| 20260509181500 | 60 | 299 | 8.0 | 13.0 | 0.00 | 0.00 | 0.00 | 76 | 1016.1 |
| 20260509180945 | 60 | 300 | 6.0 | 11.0 | 0.00 | 0.00 | 0.00 | 77 | 1016.1 |
| 20260509180428 | 60 | 280 | 6.0 | 11.0 | 0.00 | 0.00 | 0.00 | 77 | 1016.1 |
| 20260509175934 | 59 | 249 | 5.0 | 10.0 | 0.00 | 0.00 | 0.00 | 78 | 1016.1 |
| 20260509175420 | 59 | 330 | 6.0 | 10.0 | 0.00 | 0.00 | 0.00 | 78 | 1016.1 |
| 20260509174925 | 59 | 292 | 3.0 | 10.0 | 0.00 | 0.00 | 0.00 | 78 | 1016.2 |
| 20260509174449 | 59 | 322 | 6.0 | 11.0 | 0.00 | 0.00 | 0.00 | 78 | 1016.2 |
| 20260509173934 | 58 | 321 | 7.0 | 13.0 | 0.00 | 0.00 | 0.00 | 78 | 1016.2 |
| 20260509173437 | 58 | 294 | 6.0 | 13.0 | 0.00 | 0.00 | 0.00 | 78 | 1016.2 |
| 20260509172922 | 58 | 277 | 6.0 | 10.0 | 0.00 | 0.00 | 0.00 | 78 | 1016.1 |
| 20260509172430 | 57 | 258 | 4.0 | 10.0 | 0.00 | 0.00 | 0.00 | 80 | 1016.1 |
| 20260509172002 | 57 | 233 | 6.0 | 13.0 | 0.00 | 0.00 | 0.00 | 80 | 1016.1 |
| 20260509171451 | 57 | 229 | 6.0 | 13.0 | 0.00 | 0.00 | 0.00 | 79 | 1016.1 |
| 20260509170939 | 57 | 217 | 6.0 | 12.0 | 0.00 | 0.00 | 0.00 | 79 | 1016.1 |
| 20260509170423 | 58 | 236 | 3.0 | 10.0 | 0.00 | 0.00 | 0.00 | 78 | 1016.1 |
| 20260509165958 | 58 | 222 | 3.0 | 9.0 | 0.00 | 0.00 | 0.00 | 79 | 1016.1 |
| 20260509165422 | 58 | 268 | 2.0 | 9.0 | 0.00 | 0.00 | 0.00 | 79 | 1016.0 |
| 20260509164928 | 58 | 219 | 4.0 | 10.0 | 0.00 | 0.00 | 0.00 | 79 | 1016.1 |
| 20260509164435 | 58 | 211 | 6.0 | 10.0 | 0.00 | 0.00 | 0.00 | 79 | 1016.1 |
| 20260509163922 | 58 | 222 | 5.0 | 8.0 | 0.00 | 0.00 | 0.00 | 79 | 1016.0 |
| 20260509163426 | 58 | 222 | 4.0 | 8.0 | 0.00 | 0.00 | 0.00 | 79 | 1016.1 |
| 20260509162933 | 58 | 310 | 4.0 | 8.0 | 0.00 | 0.00 | 0.00 | 80 | 1016.1 |
| 20260509162439 | 58 | 256 | 3.0 | 8.0 | 0.00 | 0.00 | 0.00 | 81 | 1016.0 |
| 20260509161925 | 57 | 254 | 4.0 | 8.0 | 0.00 | 0.00 | 0.00 | 81 | 1016.0 |
| 20260509161452 | 57 | 276 | 4.0 | 8.0 | 0.00 | 0.00 | 0.00 | 82 | 1016.1 |
| 20260509160937 | 57 | 313 | 4.0 | 11.0 | 0.00 | 0.00 | 0.00 | 82 | 1016.0 |
| 20260509160421 | 56 | 282 | 2.0 | 11.0 | 0.00 | 0.00 | 0.00 | 83 | 1016.0 |
| 20260509155923 | 56 | 205 | 6.0 | 9.0 | 0.00 | 0.00 | 0.00 | 84 | 1016.1 |
| 20260509155428 | 56 | 293 | 3.0 | 8.0 | 0.00 | 0.00 | 0.00 | 84 | 1016.1 |
| 20260509154935 | 56 | 222 | 3.0 | 9.0 | 0.00 | 0.00 | 0.00 | 85 | 1016.1 |
| 20260509154423 | 55 | 210 | 3.0 | 7.0 | 0.00 | 0.00 | 0.00 | 85 | 1016.0 |
| 20260509153930 | 55 | 205 | 3.0 | 11.0 | 0.00 | 0.00 | 0.00 | 85 | 1015.9 |
| 20260509153437 | 55 | 210 | 4.0 | 8.0 | 0.00 | 0.00 | 0.00 | 85 | 1015.9 |
| 20260509152925 | 55 | 235 | 3.0 | 9.0 | 0.00 | 0.00 | 0.00 | 85 | 1015.9 |
| 20260509152426 | 55 | 231 | 2.0 | 9.0 | 0.00 | 0.00 | 0.00 | 85 | 1015.8 |
| 20260509151959 | 55 | 261 | 4.0 | 9.0 | 0.00 | 0.00 | 0.00 | 85 | 1015.9 |
| 20260509151455 | 55 | 244 | 3.0 | 9.0 | 0.00 | 0.00 | 0.00 | 85 | 1016.0 |
| 20260509150938 | 55 | 234 | 5.0 | 9.0 | 0.00 | 0.00 | 0.00 | 85 | 1016.0 |
| 20260509150424 | 55 | 195 | 4.0 | 8.0 | 0.00 | 0.00 | 0.00 | 86 | 1016.0 |
| 20260509145950 | 55 | 290 | 2.0 | 11.0 | 0.00 | 0.00 | 0.00 | 86 | 1016.0 |
| 20260509145431 | 55 | 237 | 4.0 | 11.0 | 0.00 | 0.00 | 0.00 | 86 | 1016.0 |
| 20260509144935 | 55 | 235 | 3.0 | 8.0 | 0.00 | 0.00 | 0.00 | 86 | 1016.0 |
| 20260509144439 | 54 | 233 | 3.0 | 7.0 | 0.00 | 0.00 | 0.00 | 86 | 1015.9 |
| 20260509143946 | 54 | 210 | 3.0 | 9.0 | 0.00 | 0.00 | 0.00 | 86 | 1015.9 |
| 20260509143433 | 54 | 222 | 4.0 | 9.0 | 0.00 | 0.00 | 0.00 | 86 | 1015.8 |
| 20260509142941 | 54 | 186 | 4.0 | 7.0 | 0.00 | 0.00 | 0.00 | 86 | 1015.9 |
| 20260509142426 | 54 | 213 | 4.0 | 7.0 | 0.00 | 0.00 | 0.00 | 86 | 1015.9 |
| 20260509141928 | 54 | 139 | 1.0 | 7.0 | 0.00 | 0.00 | 0.00 | 87 | 1015.8 |
| 20260509141434 | 54 | 155 | 4.0 | 7.0 | 0.00 | 0.00 | 0.00 | 87 | 1015.8 |
| 20260509140938 | 54 | 214 | 2.0 | 5.0 | 0.00 | 0.00 | 0.00 | 86 | 1015.7 |
| 20260509140426 | 54 | 231 | 2.0 | 5.0 | 0.00 | 0.00 | 0.00 | 86 | 1015.7 |
| 20260509135931 | 54 | 235 | 3.0 | 8.0 | 0.00 | 0.00 | 0.00 | 86 | 1015.6 |
| 20260509135439 | 54 | 216 | 4.0 | 8.0 | 0.00 | 0.00 | 0.00 | 86 | 1015.6 |
| 20260509134924 | 54 | 244 | 4.0 | 9.0 | 0.00 | 0.00 | 0.00 | 87 | 1015.4 |
| 20260509134427 | 54 | 215 | 3.0 | 6.0 | 0.00 | 0.00 | 0.00 | 87 | 1015.5 |
| 20260509133934 | 54 | 249 | 2.0 | 6.0 | 0.00 | 0.00 | 0.00 | 87 | 1015.5 |
| 20260509133422 | 54 | 163 | 1.0 | 8.0 | 0.00 | 0.00 | 0.00 | 87 | 1015.5 |
| 20260509132928 | 54 | 231 | 4.0 | 7.0 | 0.00 | 0.00 | 0.00 | 87 | 1015.5 |
| 20260509132436 | 54 | 206 | 3.0 | 7.0 | 0.00 | 0.00 | 0.00 | 87 | 1015.5 |
| 20260509131922 | 54 | 186 | 1.0 | 5.0 | 0.00 | 0.00 | 0.00 | 87 | 1015.5 |
| 20260509131427 | 54 | 209 | 2.0 | 5.0 | 0.00 | 0.00 | 0.00 | 87 | 1015.4 |
| 20260509130933 | 54 | 339 | 1.0 | 7.0 | 0.00 | 0.00 | 0.00 | 87 | 1015.5 |
| 20260509130437 | 53 | 301 | 2.0 | 7.0 | 0.00 | 0.00 | 0.00 | 87 | 1015.4 |
| 20260509125923 | 53 | 211 | 2.0 | 9.0 | 0.00 | 0.00 | 0.00 | 87 | 1015.3 |
| 20260509125430 | 53 | 171 | 3.0 | 6.0 | 0.00 | 0.00 | 0.00 | 87 | 1015.3 |
| 20260509124938 | 53 | 17 | 2.0 | 7.0 | 0.00 | 0.00 | 0.00 | 87 | 1015.3 |
| 20260509124444 | 53 | 219 | 3.0 | 6.0 | 0.00 | 0.00 | 0.00 | 87 | 1015.2 |
| 20260509123959 | 53 | 360 | 1.0 | 4.0 | 0.00 | 0.00 | 0.00 | 87 | 1015.2 |
| 20260509123447 | 53 | 75 | 2.0 | 6.0 | 0.00 | 0.00 | 0.00 | 87 | 1015.2 |
| 20260509122958 | 53 | 230 | 3.0 | 7.0 | 0.00 | 0.00 | 0.00 | 87 | 1015.3 |
| 20260509122453 | 53 | 134 | 2.0 | 9.0 | 0.00 | 0.00 | 0.00 | 87 | 1015.3 |
| 20260509121939 | 53 | 240 | 3.0 | 9.0 | 0.00 | 0.00 | 0.00 | 87 | 1015.3 |
| 20260509121428 | 53 | 349 | 2.0 | 6.0 | 0.00 | 0.00 | 0.00 | 87 | 1015.3 |
| 20260509120956 | 53 | 83 | 2.0 | 6.0 | 0.00 | 0.00 | 0.00 | 87 | 1015.3 |
| 20260509120444 | 53 | 102 | 4.0 | 6.0 | 0.00 | 0.00 | 0.00 | 87 | 1015.3 |
| 20260509115926 | 53 | 330 | 3.0 | 6.0 | 0.00 | 0.00 | 0.00 | 87 | 1015.3 |
| 20260509115431 | 53 | 38 | 2.0 | 6.0 | 0.00 | 0.00 | 0.00 | 87 | 1015.3 |
| 20260509114938 | 53 | 112 | 3.0 | 7.0 | 0.00 | 0.00 | 0.00 | 87 | 1015.3 |
| 20260509114426 | 53 | 339 | 4.0 | 7.0 | 0.00 | 0.00 | 0.00 | 87 | 1015.3 |
| 20260509113935 | 53 | 109 | 5.0 | 7.0 | 0.00 | 0.00 | 0.00 | 87 | 1015.3 |
| 20260509113422 | 53 | 289 | 1.0 | 4.0 | 0.00 | 0.00 | 0.00 | 87 | 1015.4 |
| 20260509112929 | 53 | 134 | 2.0 | 6.0 | 0.00 | 0.00 | 0.00 | 87 | 1015.4 |
| 20260509112431 | 53 | 219 | 3.0 | 6.0 | 0.00 | 0.00 | 0.00 | 87 | 1015.4 |
| 20260509111936 | 53 | 75 | 4.0 | 5.0 | 0.00 | 0.00 | 0.00 | 87 | 1015.3 |
| 20260509111422 | 53 | 34 | 2.0 | 6.0 | 0.00 | 0.00 | 0.00 | 87 | 1015.3 |
| 20260509110931 | 53 | 337 | 3.0 | 6.0 | 0.00 | 0.00 | 0.00 | 87 | 1015.4 |
| 20260509110434 | 53 | 8 | 2.0 | 6.0 | 0.00 | 0.00 | 0.00 | 87 | 1015.4 |
| 20260509105921 | 53 | 81 | 2.0 | 10.0 | 0.00 | 0.00 | 0.00 | 87 | 1015.4 |
| 20260509105427 | 53 | 302 | 3.0 | 10.0 | 0.00 | 0.00 | 0.00 | 87 | 1015.4 |
| 20260509104931 | 53 | 22 | 1.0 | 5.0 | 0.00 | 0.00 | 0.00 | 87 | 1015.4 |
| 20260509104432 | 53 | 74 | 1.0 | 4.0 | 0.00 | 0.00 | 0.00 | 86 | 1015.4 |
| 20260509103938 | 53 | 268 | 3.0 | 4.0 | 0.00 | 0.00 | 0.00 | 86 | 1015.4 |
| 20260509103424 | 53 | 134 | 1.0 | 6.0 | 0.00 | 0.00 | 0.00 | 86 | 1015.5 |
| 20260509102932 | 53 | 196 | 2.0 | 9.0 | 0.00 | 0.00 | 0.00 | 86 | 1015.5 |
| 20260509102440 | 53 | 45 | 3.0 | 9.0 | 0.00 | 0.00 | 0.00 | 86 | 1015.4 |
| 20260509101927 | 53 | 233 | 3.0 | 8.0 | 0.00 | 0.00 | 0.00 | 86 | 1015.5 |
| 20260509101434 | 53 | 107 | 4.0 | 8.0 | 0.00 | 0.00 | 0.00 | 86 | 1015.5 |
| 20260509100936 | 53 | 253 | 3.0 | 14.0 | 0.00 | 0.00 | 0.00 | 86 | 1015.6 |
| 20260509100452 | 53 | 134 | 4.0 | 11.0 | 0.00 | 0.00 | 0.00 | 86 | 1015.5 |
| 20260509095938 | 53 | 231 | 5.0 | 11.0 | 0.00 | 0.00 | 0.00 | 86 | 1015.5 |
| 20260509095425 | 53 | 222 | 2.0 | 5.0 | 0.00 | 0.00 | 0.00 | 86 | 1015.5 |
| 20260509094952 | 53 | 45 | 1.0 | 4.0 | 0.00 | 0.00 | 0.00 | 85 | 1015.6 |
| 20260509094437 | 53 | 268 | 1.0 | 5.0 | 0.00 | 0.00 | 0.00 | 86 | 1015.6 |
| 20260509093922 | 53 | 58 | 2.0 | 8.0 | 0.00 | 0.00 | 0.00 | 85 | 1015.7 |
| 20260509093422 | 53 | 224 | 4.0 | 8.0 | 0.00 | 0.00 | 0.00 | 85 | 1015.8 |
| 20260509092928 | 53 | 116 | 1.0 | 4.0 | 0.00 | 0.00 | 0.00 | 85 | 1015.8 |